Torna al catalogo

PAYLOAD A

AttivoMilitareSSO
NORAD 39208·PAYLOAD·🇨🇳 China

Lanciato Jul 19, 2013 da Taiyuan Satellite Launch Center

Loading…

Prossimi Passaggi (prossime 24 ore)

TLE

AggiornatoSource: Space-Track

Epoca: Sep 14, 2026, 11:23 UTC

1 39208U 13037A   26257.47480091  .00000358  00000-0  64599-4 0  9994
2 39208  98.0936 260.3085 0006937 213.7739 146.3027 14.72370165705348

Traccia PAYLOAD A in tempo reale con AllMySat

Download on the App Store